カタログに戻る

COSMOS 2341

運用中ナビゲーションPO
NORAD 24772·PAYLOAD·🇷🇺 Russia

打ち上げ Apr 17, 1997 から Plesetsk Cosmodrome

Loading…

次のパス (今後24時間)

TLE

最新Source: Space-Track

元期: Sep 14, 2026, 11:02 UTC

1 24772U 97017A   26257.45988576  .00000028  00000-0  14322-4 0  9996
2 24772  82.9195  58.9088 0025903  17.4919  10.0854 13.71631693671312

AllMySatでCOSMOS 2341をリアルタイム追跡

Download on the App Store